Hourly Weather Ruzhevka

Today, 16 May, Sunday

Time Temperature Precipitation Wind Pressure Humidity
00:00 +21°C° 0 mm 4 mps 760 mmHg 50%
01:00 +20°C° 0 mm 4 mps 760 mmHg 51%
02:00 +20°C° 0 mm 3 mps 760 mmHg 51%
03:00 +19°C° 0 mm 3 mps 760 mmHg 50%
04:00 +20°C° 0 mm 3 mps 760 mmHg 51%
05:00 +20°C° 0 mm 3 mps 760 mmHg 51%
06:00 +21°C° 0 mm 2 mps 760 mmHg 51%
07:00 +24°C° 0 mm 3 mps 760 mmHg 45%
08:00 +26°C° 0 mm 4 mps 760 mmHg 39%
09:00 +29°C° 0 mm 4 mps 760 mmHg 33%
10:00 +30°C° 0 mm 5 mps 760 mmHg 29%
11:00 +32°C° 0 mm 5 mps 760 mmHg 26%
12:00 +34°C° 0 mm 6 mps 760 mmHg 22%
13:00 +34°C° 0 mm 6 mps 760 mmHg 22%
14:00 +34°C° 0 mm 6 mps 759 mmHg 22%
15:00 +34°C° 0 mm 6 mps 759 mmHg 22%
16:00 +33°C° 0 mm 5 mps 759 mmHg 27%
17:00 +32°C° 0 mm 4 mps 759 mmHg 32%
18:00 +30°C° 0 mm 3 mps 759 mmHg 37%
19:00 +28°C° 0 mm 3 mps 759 mmHg 39%
20:00 +26°C° 0 mm 3 mps 759 mmHg 41%
21:00 +25°C° 0 mm 3 mps 759 mmHg 43%
22:00 +24°C° 0 mm 3 mps 759 mmHg 44%
23:00 +24°C° 0 mm 3 mps 759 mmHg 45%

Tomorrow, 17 May, Monday

Time Temperature Precipitation Wind Pressure Humidity
00:00 +23°C° 0 mm 4 mps 759 mmHg 46%
01:00 +22°C° 0 mm 4 mps 759 mmHg 48%
02:00 +21°C° 0 mm 3 mps 759 mmHg 49%
03:00 +21°C° 0 mm 3 mps 760 mmHg 51%
04:00 +21°C° 0 mm 3 mps 760 mmHg 51%
05:00 +23°C° 0 mm 2 mps 760 mmHg 52%
06:00 +23°C° 0 mm 2 mps 760 mmHg 53%
07:00 +25°C° 0 mm 2 mps 760 mmHg 46%
08:00 +27°C° 0 mm 2 mps 760 mmHg 40%
09:00 +30°C° 0 mm 3 mps 760 mmHg 34%
10:00 +31°C° 0 mm 3 mps 760 mmHg 29%
11:00 +33°C° 0 mm 4 mps 760 mmHg 25%
12:00 +34°C° 0 mm 4 mps 760 mmHg 21%
13:00 +34°C° 0 mm 5 mps 760 mmHg 20%
14:00 +34°C° 0 mm 5 mps 760 mmHg 20%
15:00 +34°C° 0 mm 5 mps 760 mmHg 19%
16:00 +33°C° 0 mm 4 mps 759 mmHg 25%
17:00 +30°C° 0 mm 4 mps 759 mmHg 31%
18:00 +29°C° 0 mm 3 mps 759 mmHg 36%
19:00 +27°C° 0 mm 3 mps 759 mmHg 37%
20:00 +25°C° 0 mm 3 mps 760 mmHg 37%
21:00 +24°C° 0 mm 3 mps 760 mmHg 38%
22:00 +22°C° 0 mm 3 mps 760 mmHg 38%
23:00 +22°C° 0 mm 3 mps 759 mmHg 37%

Day after tomorrow, 18 May, Tuesday

Time Temperature Precipitation Wind Pressure Humidity
00:00 +21°C° 0 mm 3 mps 759 mmHg 37%
01:00 +20°C° 0 mm 3 mps 759 mmHg 37%
02:00 +20°C° 0 mm 3 mps 759 mmHg 38%
03:00 +19°C° 0 mm 3 mps 759 mmHg 39%
04:00 +20°C° 0 mm 3 mps 759 mmHg 41%
05:00 +20°C° 0 mm 3 mps 759 mmHg 44%
06:00 +21°C° 0 mm 3 mps 759 mmHg 46%
07:00 +23°C° 0 mm 4 mps 759 mmHg 41%
08:00 +27°C° 0 mm 5 mps 759 mmHg 37%
09:00 +29°C° 0 mm 5 mps 759 mmHg 32%
10:00 +30°C° 0 mm 5 mps 759 mmHg 29%
11:00 +33°C° 0 mm 5 mps 759 mmHg 26%
12:00 +34°C° 0 mm 5 mps 759 mmHg 24%
13:00 +34°C° 0 mm 5 mps 758 mmHg 22%
14:00 +34°C° 0 mm 5 mps 758 mmHg 20%
15:00 +35°C° 0 mm 5 mps 758 mmHg 18%
16:00 +34°C° 0 mm 4 mps 758 mmHg 23%
17:00 +33°C° 0 mm 3 mps 758 mmHg 27%
18:00 +30°C° 0 mm 2 mps 758 mmHg 32%
19:00 +28°C° 0 mm 3 mps 758 mmHg 34%
20:00 +26°C° 0 mm 3 mps 758 mmHg 36%
21:00 +25°C° 0 mm 3 mps 758 mmHg 38%
22:00 +24°C° 0 mm 3 mps 758 mmHg 39%
23:00 +22°C° 0 mm 3 mps 758 mmHg 40%

19 May, Wednesday

Time Temperature Precipitation Wind Pressure Humidity
00:00 +21°C° 0 mm 3 mps 757 mmHg 41%
01:00 +21°C° 0 mm 4 mps 757 mmHg 41%
02:00 +20°C° 0 mm 4 mps 757 mmHg 41%
03:00 +20°C° 0 mm 4 mps 757 mmHg 42%
04:00 +20°C° 0 mm 4 mps 757 mmHg 45%
05:00 +21°C° 0 mm 4 mps 757 mmHg 48%
06:00 +21°C° 0 mm 5 mps 757 mmHg 51%
07:00 +25°C° 0 mm 5 mps 757 mmHg 47%
08:00 +27°C° 0 mm 5 mps 757 mmHg 42%
09:00 +29°C° 0 mm 6 mps 757 mmHg 37%
10:00 +30°C° 0 mm 6 mps 757 mmHg 34%
11:00 +33°C° 0 mm 6 mps 757 mmHg 31%
12:00 +34°C° 0 mm 6 mps 757 mmHg 27%
13:00 +34°C° 0 mm 6 mps 756 mmHg 28%
14:00 +33°C° 0 mm 6 mps 756 mmHg 29%
15:00 +33°C° 0 mm 6 mps 756 mmHg 30%
16:00 +32°C° 0 mm 5 mps 755 mmHg 34%
17:00 +30°C° 0 mm 5 mps 755 mmHg 39%
18:00 +28°C° 0 mm 5 mps 755 mmHg 43%
19:00 +27°C° 0.1 mm 5 mps 755 mmHg 47%
20:00 +26°C° 0.1 mm 6 mps 756 mmHg 51%
21:00 +23°C° 0.1 mm 7 mps 756 mmHg 56%
22:00 +22°C° 0.6 mm 5 mps 756 mmHg 65%
23:00 +20°C° 0.6 mm 3 mps 756 mmHg 75%

20 May, Thursday

Time Temperature Precipitation Wind Pressure Humidity
00:00 +20°C° 0.6 mm 1 mps 757 mmHg 84%
01:00 +19°C° 0 mm 2 mps 757 mmHg 85%
02:00 +19°C° 0 mm 3 mps 757 mmHg 85%
03:00 +18°C° 0 mm 4 mps 758 mmHg 86%
04:00 +19°C° 0.1 mm 4 mps 758 mmHg 84%
05:00 +19°C° 0.1 mm 3 mps 758 mmHg 82%
06:00 +19°C° 0.1 mm 3 mps 758 mmHg 80%
07:00 +19°C° 0.1 mm 3 mps 758 mmHg 75%
08:00 +20°C° 0.1 mm 4 mps 758 mmHg 71%
09:00 +20°C° 0.1 mm 4 mps 759 mmHg 67%
10:00 +22°C° 0.2 mm 5 mps 759 mmHg 59%
11:00 +23°C° 0.2 mm 5 mps 759 mmHg 52%
12:00 +25°C° 0.2 mm 5 mps 759 mmHg 45%
13:00 +24°C° 0 mm 6 mps 759 mmHg 41%
14:00 +26°C° 0 mm 6 mps 759 mmHg 37%
15:00 +26°C° 0 mm 6 mps 759 mmHg 33%
16:00 +25°C° 0 mm 5 mps 759 mmHg 38%
17:00 +23°C° 0 mm 5 mps 759 mmHg 44%
18:00 +22°C° 0 mm 4 mps 759 mmHg 49%
19:00 +21°C° 0 mm 3 mps 759 mmHg 53%
20:00 +19°C° 0 mm 2 mps 760 mmHg 58%
21:00 +19°C° 0 mm 1 mps 760 mmHg 62%
22:00 +18°C° 0 mm 1 mps 760 mmHg 62%
23:00 +18°C° 0 mm 1 mps 760 mmHg 63%

21 May, Friday

Time Temperature Precipitation Wind Pressure Humidity
00:00 +17°C° 0 mm 2 mps 760 mmHg 63%
01:00 +17°C° 0 mm 2 mps 761 mmHg 64%
02:00 +16°C° 0 mm 2 mps 761 mmHg 66%
03:00 +16°C° 0 mm 2 mps 761 mmHg 67%
04:00 +17°C° 0 mm 2 mps 761 mmHg 65%
05:00 +18°C° 0 mm 2 mps 762 mmHg 63%
06:00 +19°C° 0 mm 2 mps 762 mmHg 62%
07:00 +20°C° 0 mm 2 mps 762 mmHg 56%
08:00 +22°C° 0 mm 3 mps 762 mmHg 50%
09:00 +25°C° 0 mm 3 mps 762 mmHg 44%
10:00 +26°C° 0 mm 4 mps 762 mmHg 41%
11:00 +27°C° 0 mm 4 mps 762 mmHg 38%
12:00 +28°C° 0 mm 4 mps 761 mmHg 35%
13:00 +28°C° 0 mm 4 mps 761 mmHg 35%
14:00 +28°C° 0 mm 4 mps 761 mmHg 34%
15:00 +29°C° 0 mm 3 mps 761 mmHg 34%
16:00 +28°C° 0 mm 3 mps 761 mmHg 38%
17:00 +28°C° 0 mm 3 mps 760 mmHg 42%
18:00 +27°C° 0 mm 3 mps 760 mmHg 47%
19:00 +26°C° 0 mm 3 mps 760 mmHg 51%
20:00 +24°C° 0 mm 3 mps 760 mmHg 56%
21:00 +22°C° 0 mm 4 mps 760 mmHg 61%
22:00 +22°C° 0 mm 4 mps 760 mmHg 58%
23:00 +22°C° 0 mm 5 mps 760 mmHg 55%
Show more